TIANWANG 1A (TW-1A)
1 40928U 15051D   19259.89191149  .00002312  00000-0  57578-4 0  9997
2 40928  97.1391 289.1893 0012618 102.6292  21.2865 15.41180615223064
LAPAN A2
1 40931U 15052B   19259.04624291  .00000624  00000-0 -22290-5 0  9997
2 40931   5.9930 139.2903 0013649 339.0158  21.0322 14.76612922214494
LQSAT
1 40958U 15057A   19259.76935350 -.00000012 +00000-0 +58692-5 0  9997
2 40958 097.8913 326.4983 0017100 315.4093 044.5738 14.73088472212071
CHUBUSAT 2
1 41338U 16012B   19259.51706122 +.00000285 +00000-0 +15416-4 0  9995
2 41338 031.0033 293.9108 0013812 273.0717 086.8338 15.00178529196410
CHUBUSAT 3
1 41339U 16012C   19259.67568089  .00000271  00000-0  14292-4 0  9997
2 41339  31.0115 290.8782 0013810 282.9394  76.9697 15.00351955196430
OUFTI-1
1 41458U 16025C   19259.82418336 +.00000838 +00000-0 +46271-4 0  9990
2 41458 098.1008 351.2516 0167045 054.3271 307.3374 15.06014982186130
E-STAR-2
1 41459U 16025D   19259.79592896  .00001633  00000-0  86623-4 0  9990
2 41459  98.1018 350.8316 0167809  55.9278 305.7732 15.05646706186108
AAUSAT 4
1 41460U 16025E   19259.79027076  .00001564  00000-0  81402-4 0  9998
2 41460  98.0965 352.2964 0157755  47.7482 313.7001 15.07603492186240
NUSAT 1
1 41557U 16033B   19259.86924461 +.00000782 +00000-0 +31895-4 0  9998
2 41557 097.4161 346.8443 0013203 346.2033 013.8843 15.27368660183850
BEESAT 4
1 41619U 16040W   19259.84347838 +.00000954 +00000-0 +43092-4 0  9993
2 41619 097.3594 320.3554 0012882 070.2406 290.0219 15.23293642167589
PRATHAM
1 41783U 16059A   19259.74203538  .00000038  00000-0  16442-4 0  9994
2 41783  98.0590 317.2956 0034919 100.6474 259.8664 14.63008861158716
ALSAT 1N
1 41789U 16059G   19259.72216065  .00000053  00000-0  18957-4 0  9997
2 41789  98.0619 319.4689 0029535  89.8467 270.6118 14.64261223158820
NAYIF 1
1 42017U 17008BX  19259.75222552 +.00001069 +00000-0 +44778-4 0  9996
2 42017 097.3957 325.8912 0005626 196.7742 163.3311 15.25708210143659
MAX VALIER SAT
1 42778U 17036P   19259.72703525 +.00000625 +00000-0 +30245-4 0  9993
2 42778 097.3460 315.3736 0010627 267.6762 092.3257 15.22130471123931
